| time (UTC) | temp F | wind direction | speed MPH | gust MPH | rain 1hr in | rain 24hr in | rain mn in | humidity % | barometer mb |
| 20260510114527 | 83 | 160 | 0.0 | 4.0 | 0.00 | 0.00 | 0.00 | 85 | 1017.6 |
| 20260510113026 | 82 | 0 | 0.0 | 5.0 | 0.00 | 0.00 | 0.00 | 87 | 1017.5 |
| 20260510111528 | 81 | 89 | 0.0 | 4.0 | 0.00 | 0.00 | 0.00 | 87 | 1017.3 |
| 20260510110036 | 81 | 101 | 1.0 | 4.0 | 0.00 | 0.00 | 0.00 | 87 | 1017.1 |
| 20260510104529 | 81 | 199 | 1.0 | 4.0 | 0.00 | 0.00 | 0.00 | 87 | 1016.8 |
| 20260510103029 | 81 | 145 | 1.0 | 5.0 | 0.00 | 0.00 | 0.00 | 87 | 1016.7 |
| 20260510101528 | 81 | 151 | 0.0 | 2.0 | 0.00 | 0.00 | 0.00 | 87 | 1016.5 |
| 20260510100026 | 81 | 147 | 0.0 | 4.0 | 0.00 | 0.00 | 0.00 | 87 | 1016.4 |
| 20260510094544 | 81 | 99 | 0.0 | 4.0 | 0.00 | 0.00 | 0.00 | 87 | 1016.5 |
| 20260510093041 | 81 | 145 | 1.0 | 7.0 | 0.00 | 0.00 | 0.00 | 86 | 1016.4 |
| 20260510091536 | 81 | 0 | 0.0 | 5.0 | 0.00 | 0.00 | 0.00 | 87 | 1016.3 |
| 20260510090027 | 81 | 136 | 1.0 | 7.0 | 0.00 | 0.00 | 0.00 | 86 | 1016.1 |
| 20260510084526 | 81 | 157 | 3.0 | 6.0 | 0.00 | 0.00 | 0.00 | 86 | 1016.1 |
| 20260510083028 | 81 | 136 | 1.0 | 7.0 | 0.00 | 0.00 | 0.00 | 87 | 1016.1 |
| 20260510081529 | 81 | 116 | 1.0 | 4.0 | 0.00 | 0.00 | 0.00 | 87 | 1016.1 |
| 20260510080030 | 81 | 100 | 1.0 | 5.0 | 0.00 | 0.00 | 0.00 | 87 | 1016.1 |
| 20260510074529 | 81 | 128 | 1.0 | 3.0 | 0.00 | 0.00 | 0.00 | 87 | 1016.2 |
| 20260510073038 | 81 | 141 | 0.0 | 5.0 | 0.00 | 0.00 | 0.00 | 86 | 1016.2 |
| 20260510071529 | 81 | 150 | 1.0 | 6.0 | 0.00 | 0.00 | 0.00 | 87 | 1016.2 |
| 20260510070033 | 81 | 118 | 0.0 | 5.0 | 0.00 | 0.00 | 0.00 | 87 | 1016.2 |
| 20260510064527 | 81 | 134 | 1.0 | 6.0 | 0.00 | 0.00 | 0.00 | 87 | 1016.2 |
| 20260510063028 | 81 | 0 | 0.0 | 5.0 | 0.00 | 0.00 | 0.00 | 86 | 1016.2 |
| 20260510061529 | 81 | 115 | 2.0 | 6.0 | 0.00 | 0.00 | 0.00 | 86 | 1016.2 |
| 20260510060030 | 81 | 153 | 1.0 | 5.0 | 0.00 | 0.00 | 0.00 | 85 | 1016.4 |
| 20260510054530 | 81 | 127 | 1.0 | 5.0 | 0.00 | 0.00 | 0.00 | 85 | 1016.6 |
| 20260510053047 | 82 | 123 | 1.0 | 6.0 | 0.00 | 0.00 | 0.00 | 84 | 1016.8 |
| 20260510051528 | 82 | 115 | 3.0 | 8.0 | 0.00 | 0.00 | 0.00 | 84 | 1016.8 |
| 20260510050027 | 82 | 152 | 1.0 | 6.0 | 0.00 | 0.00 | 0.00 | 84 | 1017.0 |
| 20260510044528 | 82 | 0 | 1.0 | 5.0 | 0.00 | 0.00 | 0.00 | 83 | 1017.1 |
| 20260510043040 | 82 | 134 | 1.0 | 4.0 | 0.00 | 0.00 | 0.00 | 82 | 1017.2 |
| 20260510041530 | 82 | 160 | 0.0 | 5.0 | 0.00 | 0.00 | 0.00 | 81 | 1017.3 |
| 20260510040037 | 82 | 0 | 1.0 | 6.0 | 0.00 | 0.00 | 0.00 | 81 | 1017.1 |
| 20260510034528 | 81 | 139 | 0.0 | 5.0 | 0.00 | 0.00 | 0.00 | 83 | 1017.2 |
| 20260510033030 | 81 | 0 | 0.0 | 3.0 | 0.00 | 0.00 | 0.00 | 83 | 1017.0 |
| 20260510031529 | 82 | 0 | 0.0 | 2.0 | 0.00 | 0.00 | 0.00 | 82 | 1017.0 |
| 20260510030028 | 82 | 212 | 1.0 | 6.0 | 0.00 | 0.00 | 0.00 | 82 | 1017.1 |
| 20260510024530 | 82 | 218 | 3.0 | 8.0 | 0.00 | 0.00 | 0.00 | 80 | 1017.0 |
| 20260510023028 | 82 | 169 | 4.0 | 8.0 | 0.00 | 0.00 | 0.00 | 79 | 1016.7 |
| 20260510021539 | 83 | 131 | 2.0 | 9.0 | 0.00 | 0.00 | 0.00 | 79 | 1016.4 |
| 20260510020030 | 83 | 149 | 4.0 | 8.0 | 0.00 | 0.00 | 0.00 | 78 | 1016.3 |
| 20260510014532 | 82 | 212 | 3.0 | 8.0 | 0.00 | 0.00 | 0.00 | 77 | 1016.4 |
| 20260510013030 | 83 | 153 | 2.0 | 6.0 | 0.00 | 0.00 | 0.00 | 76 | 1016.2 |
| 20260510011539 | 83 | 220 | 1.0 | 10.0 | 0.00 | 0.00 | 0.00 | 76 | 1016.0 |
| 20260510010030 | 83 | 128 | 3.0 | 9.0 | 0.00 | 0.00 | 0.00 | 76 | 1015.7 |
| 20260510004531 | 83 | 162 | 4.0 | 11.0 | 0.00 | 0.00 | 0.00 | 75 | 1015.4 |
| 20260510003029 | 83 | 179 | 4.0 | 12.0 | 0.00 | 0.00 | 0.00 | 76 | 1015.2 |
| 20260510001528 | 83 | 197 | 4.0 | 11.0 | 0.00 | 0.00 | 0.00 | 76 | 1015.0 |
| 20260510000042 | 83 | 144 | 6.0 | 11.0 | 0.00 | 0.00 | 0.00 | 75 | 1015.0 |
| 20260509234528 | 84 | 153 | 5.0 | 14.0 | 0.00 | 0.00 | 0.00 | 77 | 1014.7 |
| 20260509233033 | 84 | 152 | 7.0 | 12.0 | 0.00 | 0.00 | 0.00 | 77 | 1014.6 |
| 20260509231530 | 84 | 142 | 4.0 | 12.0 | 0.00 | 0.00 | 0.00 | 77 | 1014.4 |
| 20260509230033 | 85 | 134 | 4.0 | 13.0 | 0.00 | 0.00 | 0.00 | 75 | 1014.4 |
| 20260509224528 | 86 | 142 | 5.0 | 14.0 | 0.00 | 0.00 | 0.00 | 73 | 1014.4 |
| 20260509223031 | 86 | 166 | 4.0 | 12.0 | 0.00 | 0.00 | 0.00 | 73 | 1014.3 |
| 20260509221527 | 86 | 145 | 4.0 | 12.0 | 0.00 | 0.00 | 0.00 | 75 | 1014.4 |
| 20260509220027 | 86 | 146 | 8.0 | 15.0 | 0.00 | 0.00 | 0.00 | 74 | 1014.2 |
| 20260509214529 | 86 | 111 | 5.0 | 14.0 | 0.00 | 0.00 | 0.00 | 74 | 1014.2 |
| 20260509213033 | 87 | 139 | 7.0 | 12.0 | 0.00 | 0.00 | 0.00 | 73 | 1014.3 |
| 20260509211528 | 88 | 157 | 3.0 | 11.0 | 0.00 | 0.00 | 0.00 | 73 | 1014.4 |
| 20260509210033 | 88 | 212 | 7.0 | 14.0 | 0.00 | 0.00 | 0.00 | 73 | 1014.3 |
| 20260509204535 | 87 | 205 | 6.0 | 16.0 | 0.00 | 0.00 | 0.00 | 73 | 1014.5 |
| 20260509203028 | 88 | 153 | 6.0 | 16.0 | 0.00 | 0.00 | 0.00 | 72 | 1014.5 |
| 20260509201527 | 88 | 153 | 6.0 | 16.0 | 0.00 | 0.00 | 0.00 | 72 | 1014.5 |
| 20260509200029 | 88 | 188 | 9.0 | 17.0 | 0.00 | 0.00 | 0.00 | 72 | 1014.7 |
| 20260509194533 | 89 | 188 | 6.0 | 13.0 | 0.00 | 0.00 | 0.00 | 70 | 1014.9 |
| 20260509193032 | 88 | 129 | 6.0 | 14.0 | 0.00 | 0.00 | 0.00 | 71 | 1014.7 |
| 20260509191539 | 88 | 111 | 7.0 | 16.0 | 0.00 | 0.00 | 0.00 | 71 | 1015.0 |
| 20260509190030 | 89 | 151 | 6.0 | 13.0 | 0.00 | 0.00 | 0.00 | 72 | 1015.2 |
| 20260509184543 | 88 | 150 | 6.0 | 16.0 | 0.00 | 0.00 | 0.00 | 73 | 1015.4 |
| 20260509183040 | 89 | 135 | 7.0 | 14.0 | 0.00 | 0.00 | 0.00 | 72 | 1015.7 |
| 20260509181531 | 89 | 116 | 5.0 | 14.0 | 0.00 | 0.00 | 0.00 | 72 | 1015.9 |
| 20260509180030 | 89 | 140 | 6.0 | 14.0 | 0.00 | 0.00 | 0.00 | 72 | 1016.0 |
| 20260509174529 | 88 | 155 | 5.0 | 15.0 | 0.00 | 0.00 | 0.00 | 72 | 1016.1 |
| 20260509173029 | 88 | 155 | 8.0 | 18.0 | 0.00 | 0.00 | 0.00 | 71 | 1016.2 |
| 20260509171529 | 88 | 136 | 7.0 | 17.0 | 0.00 | 0.00 | 0.00 | 69 | 1016.2 |
| 20260509170029 | 88 | 167 | 7.0 | 15.0 | 0.00 | 0.00 | 0.00 | 69 | 1016.3 |
| 20260509164530 | 89 | 210 | 6.0 | 13.0 | 0.00 | 0.00 | 0.00 | 69 | 1016.4 |
| 20260509163038 | 88 | 193 | 6.0 | 12.0 | 0.00 | 0.00 | 0.00 | 72 | 1016.5 |
| 20260509161528 | 87 | 167 | 5.0 | 10.0 | 0.00 | 0.00 | 0.00 | 75 | 1016.5 |
| 20260509160028 | 87 | 193 | 3.0 | 10.0 | 0.00 | 0.00 | 0.00 | 76 | 1016.8 |
| 20260509154530 | 87 | 133 | 2.0 | 7.0 | 0.00 | 0.00 | 0.00 | 78 | 1016.8 |
| 20260509153039 | 86 | 120 | 2.0 | 8.0 | 0.00 | 0.00 | 0.00 | 77 | 1016.8 |
| 20260509151530 | 86 | 136 | 3.0 | 7.0 | 0.00 | 0.00 | 0.00 | 79 | 1016.8 |
| 20260509150029 | 86 | 169 | 3.0 | 8.0 | 0.00 | 0.00 | 0.00 | 80 | 1016.7 |
| 20260509144532 | 86 | 162 | 2.0 | 7.0 | 0.00 | 0.00 | 0.00 | 80 | 1016.6 |
| 20260509143030 | 87 | 99 | 2.0 | 6.0 | 0.00 | 0.00 | 0.00 | 78 | 1016.4 |
| 20260509141528 | 85 | 131 | 2.0 | 7.0 | 0.00 | 0.00 | 0.00 | 80 | 1016.3 |
| 20260509140028 | 85 | 120 | 4.0 | 8.0 | 0.00 | 0.00 | 0.00 | 79 | 1016.2 |
| 20260509134530 | 85 | 112 | 1.0 | 5.0 | 0.00 | 0.00 | 0.00 | 79 | 1016.2 |
| 20260509133029 | 86 | 136 | 1.0 | 4.0 | 0.00 | 0.00 | 0.00 | 78 | 1016.2 |
| 20260509131529 | 85 | 0 | 1.0 | 5.0 | 0.00 | 0.00 | 0.00 | 80 | 1016.2 |
| 20260509130107 | 84 | 0 | 0.0 | 2.0 | 0.00 | 0.00 | 0.00 | 82 | 1016.0 |
| 20260509124535 | 82 | 0 | 0.0 | 2.0 | 0.00 | 0.00 | 0.00 | 82 | 1016.0 |
| 20260509123030 | 82 | 75 | 0.0 | 1.0 | 0.00 | 0.00 | 0.00 | 82 | 1015.9 |
| 20260509121528 | 81 | 0 | 0.0 | 3.0 | 0.00 | 0.00 | 0.00 | 85 | 1015.9 |
| 20260509120028 | 80 | 0 | 0.0 | 2.0 | 0.00 | 0.00 | 0.00 | 86 | 1016.1 |